Hourly Weather Boa Vista

Today, 7 August, Friday

Time Temperature Precipitation Wind Pressure Humidity
00:00 +26°C° 0.1 mm 1 mps 755 mmHg 90%
01:00 +26°C° 0.1 mm 1 mps 755 mmHg 90%
02:00 +25°C° 0 mm 1 mps 754 mmHg 91%
03:00 +25°C° 0 mm 1 mps 754 mmHg 91%
04:00 +25°C° 0 mm 1 mps 754 mmHg 91%
05:00 +23°C° 0 mm 0 mps 754 mmHg 91%
06:00 +24°C° 0 mm 0 mps 754 mmHg 90%
07:00 +24°C° 0 mm 0 mps 755 mmHg 88%
08:00 +27°C° 0 mm 1 mps 756 mmHg 83%
09:00 +28°C° 0.7 mm 1 mps 755 mmHg 80%
10:00 +30°C° 0.7 mm 1 mps 755 mmHg 77%
11:00 +31°C° 0.7 mm 2 mps 755 mmHg 74%
12:00 +31°C° 0.6 mm 2 mps 754 mmHg 71%
13:00 +32°C° 0.6 mm 2 mps 754 mmHg 67%
14:00 +34°C° 0.6 mm 2 mps 753 mmHg 64%
15:00 +32°C° 0.4 mm 2 mps 753 mmHg 67%
16:00 +31°C° 0.4 mm 2 mps 753 mmHg 70%
17:00 +31°C° 0.4 mm 2 mps 752 mmHg 72%
18:00 +30°C° 0 mm 2 mps 753 mmHg 76%
19:00 +29°C° 0 mm 2 mps 753 mmHg 79%
20:00 +27°C° 0 mm 1 mps 754 mmHg 82%
21:00 +27°C° 0 mm 1 mps 755 mmHg 82%
22:00 +27°C° 0 mm 1 mps 755 mmHg 82%
23:00 +27°C° 0 mm 1 mps 755 mmHg 82%

Tomorrow, 8 August, Saturday

Time Temperature Precipitation Wind Pressure Humidity
00:00 +27°C° 0.7 mm 1 mps 755 mmHg 84%
01:00 +27°C° 0.7 mm 1 mps 755 mmHg 87%
02:00 +26°C° 0.7 mm 1 mps 754 mmHg 90%
03:00 +26°C° 0.2 mm 1 mps 754 mmHg 91%
04:00 +26°C° 0.2 mm 2 mps 755 mmHg 92%
05:00 +25°C° 0.2 mm 2 mps 755 mmHg 94%
06:00 +26°C° 0 mm 2 mps 755 mmHg 92%
07:00 +26°C° 0 mm 2 mps 755 mmHg 91%
08:00 +27°C° 0 mm 2 mps 755 mmHg 89%
09:00 +28°C° 0 mm 2 mps 756 mmHg 85%
10:00 +29°C° 0 mm 2 mps 756 mmHg 81%
11:00 +29°C° 0 mm 2 mps 756 mmHg 77%
12:00 +30°C° 0.9 mm 2 mps 755 mmHg 76%
13:00 +31°C° 0.9 mm 2 mps 754 mmHg 75%
14:00 +31°C° 0.9 mm 1 mps 753 mmHg 74%
15:00 +31°C° 1.4 mm 1 mps 753 mmHg 74%
16:00 +31°C° 1.4 mm 1 mps 753 mmHg 74%
17:00 +29°C° 1.4 mm 0 mps 752 mmHg 75%
18:00 +27°C° 0 mm 0 mps 753 mmHg 79%
19:00 +26°C° 0 mm 0 mps 754 mmHg 83%
20:00 +25°C° 0 mm 0 mps 754 mmHg 86%
21:00 +25°C° 0.1 mm 0 mps 754 mmHg 87%
22:00 +25°C° 0.1 mm 0 mps 755 mmHg 87%
23:00 +24°C° 0.1 mm 0 mps 755 mmHg 88%

Day after tomorrow, 9 August, Sunday

Time Temperature Precipitation Wind Pressure Humidity
00:00 +24°C° 0 mm 0 mps 755 mmHg 88%
01:00 +26°C° 0 mm 1 mps 754 mmHg 88%
02:00 +26°C° 0 mm 1 mps 754 mmHg 89%
03:00 +25°C° 0 mm 1 mps 754 mmHg 90%
04:00 +25°C° 0 mm 1 mps 754 mmHg 91%
05:00 +25°C° 0 mm 1 mps 754 mmHg 92%
06:00 +26°C° 0 mm 1 mps 754 mmHg 90%
07:00 +27°C° 0 mm 1 mps 754 mmHg 87%
08:00 +28°C° 0 mm 1 mps 755 mmHg 84%
09:00 +29°C° 0.3 mm 1 mps 755 mmHg 78%
10:00 +31°C° 0.3 mm 1 mps 755 mmHg 72%
11:00 +30°C° 0.3 mm 0 mps 755 mmHg 66%
12:00 +33°C° 0.9 mm 1 mps 754 mmHg 64%
13:00 +33°C° 0.9 mm 1 mps 753 mmHg 62%
14:00 +33°C° 0.9 mm 1 mps 753 mmHg 60%
15:00 +33°C° 0.3 mm 1 mps 752 mmHg 64%
16:00 +32°C° 0.3 mm 1 mps 752 mmHg 67%
17:00 +32°C° 0.3 mm 1 mps 752 mmHg 70%
18:00 +30°C° 0.1 mm 1 mps 752 mmHg 75%
19:00 +29°C° 0.1 mm 1 mps 753 mmHg 79%
20:00 +28°C° 0.1 mm 1 mps 753 mmHg 83%
21:00 +28°C° 0 mm 1 mps 753 mmHg 83%
22:00 +27°C° 0 mm 1 mps 754 mmHg 84%
23:00 +27°C° 0 mm 1 mps 754 mmHg 84%

10 August, Monday

Time Temperature Precipitation Wind Pressure Humidity
00:00 +27°C° 0 mm 1 mps 754 mmHg 85%
01:00 +27°C° 0 mm 1 mps 753 mmHg 86%
02:00 +26°C° 0 mm 1 mps 752 mmHg 87%
03:00 +26°C° 0 mm 1 mps 752 mmHg 87%
04:00 +26°C° 0 mm 1 mps 752 mmHg 88%
05:00 +26°C° 0 mm 1 mps 752 mmHg 88%
06:00 +27°C° 0 mm 1 mps 753 mmHg 85%
07:00 +28°C° 0 mm 1 mps 753 mmHg 81%
08:00 +29°C° 0 mm 1 mps 754 mmHg 78%
09:00 +31°C° 0.2 mm 2 mps 754 mmHg 71%
10:00 +32°C° 0.2 mm 2 mps 754 mmHg 65%
11:00 +35°C° 0.2 mm 2 mps 754 mmHg 58%
12:00 +35°C° 0.1 mm 2 mps 753 mmHg 56%
13:00 +35°C° 0.1 mm 3 mps 752 mmHg 54%
14:00 +36°C° 0.1 mm 3 mps 751 mmHg 52%
15:00 +35°C° 0.2 mm 2 mps 751 mmHg 57%
16:00 +34°C° 0.2 mm 2 mps 750 mmHg 62%
17:00 +32°C° 0.2 mm 2 mps 750 mmHg 67%
18:00 +31°C° 0.7 mm 2 mps 750 mmHg 73%
19:00 +29°C° 0.7 mm 1 mps 751 mmHg 79%
20:00 +28°C° 0.7 mm 1 mps 751 mmHg 85%
21:00 +28°C° 0.3 mm 1 mps 752 mmHg 85%
22:00 +27°C° 0.3 mm 1 mps 752 mmHg 86%
23:00 +27°C° 0.3 mm 1 mps 752 mmHg 86%

11 August, Tuesday

Time Temperature Precipitation Wind Pressure Humidity
00:00 +27°C° 0 mm 1 mps 752 mmHg 87%
01:00 +27°C° 0 mm 1 mps 751 mmHg 87%
02:00 +26°C° 0 mm 1 mps 751 mmHg 88%
03:00 +26°C° 0 mm 1 mps 751 mmHg 89%
04:00 +26°C° 0 mm 1 mps 751 mmHg 90%
05:00 +26°C° 0 mm 1 mps 751 mmHg 90%
06:00 +27°C° 0 mm 1 mps 751 mmHg 87%
07:00 +27°C° 0 mm 1 mps 752 mmHg 84%
08:00 +28°C° 0 mm 2 mps 752 mmHg 81%
09:00 +30°C° 0.1 mm 2 mps 752 mmHg 74%
10:00 +32°C° 0.1 mm 2 mps 752 mmHg 67%
11:00 +35°C° 0.1 mm 2 mps 752 mmHg 60%
12:00 +35°C° 0.7 mm 3 mps 751 mmHg 60%
13:00 +35°C° 0.7 mm 3 mps 750 mmHg 60%
14:00 +35°C° 0.7 mm 3 mps 750 mmHg 61%
15:00 +34°C° 0.9 mm 2 mps 749 mmHg 65%
16:00 +34°C° 0.9 mm 2 mps 749 mmHg 70%
17:00 +32°C° 0.9 mm 2 mps 749 mmHg 74%
18:00 +31°C° 0.4 mm 2 mps 749 mmHg 79%
19:00 +29°C° 0.4 mm 1 mps 750 mmHg 83%
20:00 +28°C° 0.4 mm 1 mps 750 mmHg 87%
21:00 +28°C° 2.8 mm 1 mps 751 mmHg 89%
22:00 +27°C° 2.8 mm 1 mps 751 mmHg 91%
23:00 +27°C° 2.8 mm 1 mps 752 mmHg 93%

12 August, Wednesday

Time Temperature Precipitation Wind Pressure Humidity
00:00 +27°C° 2.3 mm 1 mps 751 mmHg 92%
01:00 +27°C° 2.3 mm 1 mps 751 mmHg 92%
02:00 +27°C° 2.3 mm 1 mps 750 mmHg 91%
03:00 +26°C° 0.3 mm 1 mps 750 mmHg 92%
04:00 +26°C° 0.3 mm 1 mps 750 mmHg 92%
05:00 +26°C° 0.3 mm 1 mps 750 mmHg 93%
06:00 +27°C° 0 mm 1 mps 751 mmHg 90%
07:00 +27°C° 0 mm 1 mps 752 mmHg 88%
08:00 +28°C° 0 mm 2 mps 752 mmHg 85%
09:00 +29°C° 0.6 mm 2 mps 752 mmHg 80%
10:00 +31°C° 0.6 mm 3 mps 752 mmHg 76%
11:00 +33°C° 0.6 mm 3 mps 752 mmHg 71%
12:00 +34°C° 0.3 mm 3 mps 751 mmHg 67%
13:00 +34°C° 0.3 mm 3 mps 750 mmHg 63%
14:00 +35°C° 0.3 mm 3 mps 750 mmHg 59%
15:00 +35°C° 0.1 mm 3 mps 749 mmHg 62%
16:00 +34°C° 0.1 mm 2 mps 749 mmHg 64%
17:00 +34°C° 0.1 mm 2 mps 748 mmHg 67%
18:00 +31°C° 0.3 mm 2 mps 749 mmHg 72%
19:00 +30°C° 0.3 mm 2 mps 749 mmHg 76%
20:00 +28°C° 0.3 mm 2 mps 750 mmHg 81%
21:00 +28°C° 0 mm 2 mps 750 mmHg 82%
22:00 +28°C° 0 mm 2 mps 750 mmHg 82%
23:00 +27°C° 0 mm 1 mps 751 mmHg 83%
Show more